Location: Newark
(41.9000°N, 12.4833°E)
Time: 21:46:05
(UTC+00:00)

EO-88 - Pass Details

Date: 27 May 2019
Orbit: 484 x 494 km, 97.4° (Epoch: 17 June)

Event Time Altitude Azimuth Distance (km) Brightness Sun altitude
Exits shadow 20:40:34 49° 160° (SSE) 648 ? -18.2°
Maximum altitude 20:41:29 84° 79° (E) 503 ? -18.3°
Drops below altitude 10° 20:45:09 10° 349° (N) 1,700 ? -18.7°
Sets 20:47:14 0° 349° (N) 2,587 ? -18.9°
